Weather History for PAEN - October, 2012

Change the Weather History Date:

Wednesday, October 3, 2012

  Actual Average Record
Temperature  
Mean Temperature 45 °F -  
Max Temperature 53 °F 47 °F 60 °F (1954)
Min Temperature 37 °F 32 °F 13 °F (1974)
Degree Days  
Heating Degree Days 20    
Moisture  
Dew Point 40 °F    
Average Humidity 86    
Maximum Humidity 97    
Minimum Humidity 55    
Precipitation  
Precipitation 0.32 in - - ()
Sea Level Pressure  
Sea Level Pressure 30.15 in    
Wind  
Wind Speed 8 mph (NNE)    
Max Wind Speed 20 mph    
Max Gust Speed 21 mph    
Visibility 10 miles    
Events Rain    
Averages and records for this station are not official NWS values.
T = Trace of Precipitation, MM = Missing Value Source: NWS Daily Summary

Daily Weather History Graph

Daily Weather History Graph

Search for Another Location

Airport or City:

Trip Planner

Search our weather history database for the weather conditions in past years. The results will help you decide how hot, cold, wet, or windy it might be!

Date:

Astronomy

Oct. 03, 2012 Rise Set
Actual Time 8:17 AM AKDT 7:28 PM AKDT
Civil Twilight 7:35 AM AKDT 8:10 PM AKDT
Nautical Twilight 6:45 AM AKDT 8:59 PM AKDT
Astronomical Twilight 5:54 AM AKDT 9:51 PM AKDT
Moon 8:15 PM AKDT (10/3) 1:00 PM AKDT (10/3)
Length of Visible Light 12h 35m
Length of Day
11h 11m
Waning Gibbous, 88% of the Moon is Illuminated
Oct 3
Waning Gibbous
Oct 7
Last Quarter
Oct 15
New
Oct 21
First Quarter
Oct 29
Full

Hourly Weather History & Observations

Time (AKDT) Temp. Windchill Dew Point Humidity Pressure Visibility Wind Dir Wind Speed Gust Speed Precip Events Conditions
12:53 AM 41.0 °F 38.0 °F 37.9 °F 89% 30.23 in 10.0 mi NE 4.6 mph - N/A   Overcast
1:53 AM 41.0 °F 36.4 °F 37.0 °F 86% 30.23 in 10.0 mi NE 6.9 mph - N/A   Overcast
2:53 AM 39.0 °F 33.4 °F 36.0 °F 89% 30.23 in 10.0 mi NNE 8.1 mph - N/A   Mostly Cloudy
3:53 AM 39.9 °F 34.5 °F 36.0 °F 86% 30.23 in 10.0 mi NE 8.1 mph - N/A   Clear
4:53 AM 39.0 °F 35.7 °F 36.0 °F 89% 30.24 in 10.0 mi NNW 4.6 mph - N/A   Overcast
5:53 AM 39.9 °F 36.7 °F 36.0 °F 86% 30.24 in 10.0 mi North 4.6 mph - N/A   Mostly Cloudy
6:53 AM 39.9 °F 37.8 °F 36.0 °F 86% 30.24 in 10.0 mi North 3.5 mph - N/A   Mostly Cloudy
7:53 AM 37.9 °F 31.5 °F 35.1 °F 89% 30.22 in 10.0 mi NNE 9.2 mph - N/A   Mostly Cloudy
8:53 AM 39.0 °F 35.7 °F 36.0 °F 89% 30.22 in 10.0 mi North 4.6 mph - N/A   Partly Cloudy
9:53 AM 42.1 °F 38.4 °F 37.0 °F 82% 30.22 in 10.0 mi NNE 5.8 mph - N/A   Mostly Cloudy
10:53 AM 45.0 °F 40.1 °F 37.0 °F 74% 30.21 in 10.0 mi NNE 9.2 mph - N/A   Overcast
11:53 AM 50.0 °F - 39.0 °F 66% 30.21 in 10.0 mi NNE 9.2 mph - N/A   Overcast
12:53 PM 53.1 °F - 37.0 °F 55% 30.18 in 10.0 mi ENE 11.5 mph 20.7 mph N/A   Clear
1:53 PM 52.0 °F - 37.9 °F 59% 30.16 in 10.0 mi ENE 8.1 mph - N/A   Overcast
2:53 PM 48.0 °F - 43.0 °F 83% 30.14 in 10.0 mi NE 8.1 mph - 0.03 in Rain Light Rain
3:53 PM 46.9 °F - 44.1 °F 90% 30.13 in 10.0 mi NE 8.1 mph - 0.02 in Rain Light Rain
4:53 PM 46.0 °F 40.6 °F 45.0 °F 96% 30.11 in 7.0 mi NNE 11.5 mph - 0.04 in Rain Rain
5:53 PM 46.0 °F 39.9 °F 45.0 °F 96% 30.08 in 10.0 mi North 13.8 mph - 0.08 in Rain Light Rain
6:53 PM 46.0 °F 39.9 °F 44.1 °F 93% 30.06 in 10.0 mi North 13.8 mph - 0.04 in Rain Light Rain
7:53 PM 45.0 °F 38.5 °F 44.1 °F 97% 30.05 in 8.0 mi North 13.8 mph - 0.06 in Rain Rain
8:53 PM 44.1 °F 35.9 °F 43.0 °F 96% 30.04 in 10.0 mi North 19.6 mph - 0.05 in Rain Light Rain
9:53 PM 44.1 °F 36.2 °F 43.0 °F 96% 30.02 in 10.0 mi North 18.4 mph - 0.00 in   Overcast
10:11 PM 44.6 °F 37.4 °F 42.8 °F 93% 30.01 in 10.0 mi North 16.1 mph - N/A   Overcast
10:53 PM 44.1 °F 37.4 °F 43.0 °F 96% 30.02 in 10.0 mi North 13.8 mph - N/A   Overcast
11:53 PM 44.1 °F 36.2 °F 43.0 °F 96% 30.00 in 10.0 mi North 18.4 mph - N/A   Overcast